Location: Bidart
(43.4376°N, 1.5913°W)
Time: 22:51:51
(UTC+00:00)

NOSS 3-1 (A) - Pass Details

Date: 19 May 2025
Orbit: 639 x 1569 km, 63.4° (Epoch: 10 June)

Event Time Altitude Azimuth Distance (km) Brightness Sun altitude
Exits shadow 20:50:26 18° 119° (ESE) 1,690 4.2 -12.8°
Maximum altitude 20:51:07 18° 108° (ESE) 1,685 4.2 -12.8°
Drops below altitude 10° 20:54:34 10° 66° (ENE) 2,307 5.3 -13.3°
Sets 20:57:52 0° 49° (NE) 3,392 6.3 -13.7°
